Location: Rybnik
(50.1167°N, 18.5333°E)
Time: 00:48:56
(UTC+01:00)

ISS - Visible Passes

Search period start: 26 January 2020 00:00
Search period end: 05 February 2020 00:00
Orbit: 416 x 423 km, 51.6° (Epoch: 26 January)

Date Brightness Start Highest point End Pass type
(mag) Time Alt. Az. Time Alt. Az. Time Alt. Az.
26 Jan -3.9 18:28:23 10° WSW 18:31:47 82° NNW 18:31:57 77° NE visible
27 Jan -3.8 17:40:52 10° WSW 17:44:16 82° SSE 17:46:24 21° ENE visible
27 Jan -1.4 19:17:49 10° W 19:19:22 25° WNW 19:19:22 25° WNW visible
28 Jan -3.7 18:30:15 10° W 18:33:37 66° N 18:33:48 64° NNE visible
29 Jan -3.7 17:42:40 10° W 17:46:03 71° N 17:48:13 20° ENE visible
29 Jan -1.5 19:19:38 10° WNW 19:21:11 25° WNW 19:21:11 25° WNW visible
30 Jan -3.8 18:32:03 10° WNW 18:35:26 69° N 18:35:36 67° NNE visible
31 Jan -3.6 17:44:28 10° W 17:47:51 65° N 17:50:03 20° E visible
31 Jan -1.6 19:21:21 10° WNW 19:23:01 26° W 19:23:01 26° W visible
01 Feb -3.9 18:33:46 10° WNW 18:37:10 87° SSW 18:37:29 72° ESE visible
02 Feb -3.8 17:46:11 10° WNW 17:49:35 78° N 17:52:00 18° E visible
02 Feb -1.5 19:23:07 10° W 19:24:58 25° WSW 19:24:58 25° WSW visible
03 Feb -3.1 18:35:27 10° WNW 18:38:45 50° SSW 18:39:35 39° SSE visible
04 Feb -3.5 17:47:50 10° WNW 17:51:12 68° SSW 17:54:17 12° ESE visible
04 Feb -1.2 19:25:15 10° W 19:27:16 17° SW 19:27:16 17° SW visible
